Location: Kershaw
(34.5481°N, 80.5823°W)
Time: 16:10:46
(UTC+00:00)

Vanguard 1 Rocket - Pass Details

Date: 04 October 2022
Orbit: 650 x 4225 km, 34.3° (Epoch: 08 December)

Event Time Altitude Azimuth Distance (km) Brightness Sun altitude
Rises 06:37:45 0° 284° (WNW) 5,280 - -53.8°
Reaches altitude 10° 06:42:17 10° 277° (W) 3,697 - -53.2°
Maximum altitude 06:49:39 33° 217° (SW) 1,635 - -52.2°
Drops below altitude 10° 06:54:22 10° 153° (SSE) 2,322 - -51.5°
Sets 06:56:35 0° 142° (SE) 3,087 - -51.2°
